Home   Weather   Yosemite Village   Past weeks
Flag for USA

Past Weather in Yosemite Village, California, USA — October 2018

Now
78 °F

Sunny.


Feels Like: 79 °F
Forecast: 89 / 60 °F
Wind: No wind

Location: Modesto City-County-Sham Field

Current Time: May 29, 2020 at 11:48:43 am

Latest Report: May 29, 2020 at 10:53 am


Visibility: 10 mi

Pressure: 29.81 "Hg

Humidity: 45%

Dew Point: 55 °F

Location of Yosemite VillageLocation

October 2018 Weather in Yosemite Village — Graph

°F

High & Low Weather Summary for October 2018

 TemperatureHumidityPressure
High85 °F (Oct 2, 4:53 pm)96% (Oct 25, 7:53 am)30.16 "Hg (Oct 25, 7:53 am)
Low42 °F (Oct 31, 6:53 am)11% (Oct 15, 2:53 pm)29.70 "Hg (Oct 9, 5:53 pm)
Average65 °F55%29.94 "Hg
* Reported Oct 1 12:53 am — Oct 31 11:53 pm, Yosemite Village. Weather by CustomWeather, © 2020

Note: Actual official high and low records may vary slightly from our data, if they occured in-between our weather recording intervals... More about our weather records

Yosemite Village Weather History for October 1, 2018

Scroll right to see more
 ConditionsComfort  
Time TempWeatherWind HumidityBarometerVisibility
12:53 am
Mon, Oct 1
67 °FClear.5 mph59%29.84 "Hg10 mi
1:53 am66 °FClear.5 mph63%29.84 "Hg10 mi
2:53 am64 °FClear.No wind70%29.84 "Hg10 mi
3:53 am62 °FClear.No wind78%29.84 "Hg10 mi
4:53 am62 °FClear.No wind75%29.84 "Hg10 mi
5:53 am61 °FClear.3 mph78%29.85 "Hg10 mi
6:53 am61 °FClear.3 mph75%29.86 "Hg10 mi
7:53 am63 °FSunny.7 mph70%29.88 "Hg10 mi
8:53 am66 °FSunny.5 mph63%29.88 "Hg10 mi
9:53 am71 °FSunny.5 mph51%29.89 "Hg10 mi
10:53 am75 °FSunny.3 mph43%29.88 "Hg10 mi
11:53 am77 °FSunny.5 mph42%29.86 "Hg10 mi
12:53 pm80 °FSunny.No wind38%29.83 "Hg10 mi
1:53 pm81 °FSunny.No wind34%29.80 "Hg10 mi
2:53 pm83 °FSunny.3 mph26%29.78 "Hg10 mi
3:53 pm83 °FSunny.5 mph28%29.77 "Hg10 mi
4:53 pm82 °FSunny.10 mph35%29.76 "Hg10 mi
5:53 pm81 °FSunny.8 mph34%29.75 "Hg10 mi
6:53 pm78 °FClear.9 mph39%29.75 "Hg10 mi
7:53 pm76 °FClear.9 mph42%29.75 "Hg10 mi
8:53 pm74 °FClear.9 mph46%29.75 "Hg10 mi
9:53 pm71 °FClear.8 mph53%29.76 "Hg10 mi
10:53 pm70 °FClear.9 mph55%29.76 "Hg10 mi
11:53 pm68 °FClear.7 mph59%29.76 "Hg10 mi
Weather by CustomWeather, © 2020

See weather overview

Advertising